[[{"header":{"parameterUnit":"m.s-1","parameterCategory":1,"la1":30.2992,"la2":30.254,"lo1":-89.0895,"lo2":-89.0443,"dy":0.0025,"dx":0.0025,"nx":19,"ny":19,"refTime":"2026-04-24T03:00:00:Z","depth":0,"parameterNumber":2,"parameterNumberName":"U-component_of_WINDS"},"data":[0,0,0,0.3051,0.3055,0.3247,0.3248,0.3475,0.3476,0,0,0,0,0,0,0,0,0,0,0,0.2982,0.2984,0.305,0.3055,0.3247,0.3248,0.3474,0.3476,0,0,0,0,0,0,0,0,0,0,0,0.2982,0.2983,0.2985,0.3056,0.3247,0.3248,0.3474,0.3336,0,0,0,0,0,0,0,0,0,0,0.3152,0.3078,0.2983,0.2985,0.3057,0.3246,0.3248,0.3329,0.3344,0.3379,0,0.3408,0,0.3446,0.349,0.3491,0,0,0,0.3063,0.3065,0.3128,0.2985,0.3058,0.3246,0.3163,0.3338,0.3355,0.3399,0.3411,0.342,0.3449,0.3492,0.3493,0.3668,0.3669,0,0,0.3053,0.3011,0.3116,0.3138,0.3107,0.3156,0.3168,0.3348,0.3359,0.3412,0.3426,0.3453,0.3493,0.3495,0.3668,0.3668,0,0,0,0.3017,0.3003,0.3061,0.3128,0.3164,0.3162,0.3176,0.3351,0.3373,0.3428,0.3456,0.3494,0.3497,0.3667,0.3668,0.3648,0,0,0,0.3011,0.2982,0.3056,0.3032,0.316,0.326,0.3173,0.3361,0.3382,0.3455,0.3494,0.3499,0.3667,0.3668,0.3648,0.3646,0,0,0,0.2974,0.2978,0.3002,0.303,0.3111,0.3258,0.3291,0.3366,0.3399,0.3491,0.35,0.3667,0.3668,0.3647,0.3645,0.368,0,0,0,0.2922,0.2981,0.3001,0.3077,0.3109,0.3244,0.329,0.3393,0.347,0.3495,0.3667,0.3668,0.3647,0.3645,0.3679,0.3701,0.3706,0,0,0.2973,0.2986,0.3034,0.3057,0.3178,0.3218,0.3337,0.3447,0.3494,0.3607,0.3612,0.3648,0.3645,0.368,0.375,0.3754,0,0,0,0.3036,0.307,0.3111,0.3183,0.3268,0.3342,0.3438,0.3479,0.3578,0.3544,0.3671,0.3671,0.3693,0.3705,0.3708,0.373,0.3672,0.3672,0.3672,0.3047,0.3104,0.3188,0.3269,0.3338,0.3437,0.3498,0.357,0.3608,0.3637,0.3671,0.3707,0.372,0.3722,0.3744,0.3687,0.3687,0.3687,0.3687,0.3127,0.3184,0.3233,0.3332,0.3392,0.3476,0.3574,0.3598,0.3685,0.3686,0.3708,0.3704,0.3725,0.3747,0.3686,0.3686,0.3686,0.3686,0.3687,0.314,0.3178,0.3227,0.3337,0.3415,0.3494,0.3576,0.3628,0.3677,0.3699,0.3741,0.3741,0.3749,0.3715,0.3715,0.3716,0.3716,0.3716,0.3716,0.3135,0.3191,0.3253,0.335,0.3403,0.3479,0.3579,0.3633,0.3706,0.3737,0.3738,0.3772,0.3716,0.3701,0.3718,0.3718,0.3717,0.3717,0.3717,0.3194,0.3189,0.3285,0.3338,0.3456,0.353,0.3596,0.37,0.3752,0.3791,0.3821,0.3771,0.3787,0.3785,0.3773,0.3808,0.3808,0.3808,0.3808,0.3205,0.3219,0.3329,0.3411,0.3497,0.3566,0.3673,0.3751,0.3832,0.3868,0.387,0.3858,0.3854,0.3873,0.3869,0.3859,0.3915,0.3915,0.3915,0.3245,0.3269,0.335,0.3429,0.3526,0.3607,0.3709,0.38,0.3891,0.3921,0.3897,0.3893,0.3874,0.3865,0.3894,0.3886,0.3868,0,0]},{"header":{"parameterUnit":"m.s-1","parameterCategory":1,"la1":30.2992,"la2":30.254,"lo1":-89.0895,"lo2":-89.0443,"dy":0.0025,"dx":0.0025,"nx":19,"ny":19,"refTime":"2026-04-24T03:00:00:Z","depth":0,"parameterNumber":3,"parameterNumberName":"V-component_of_WINDS"},"data":[0,0,0,4.5104,4.5104,4.5121,4.5121,4.5161,4.5161,0,0,0,0,0,0,0,0,0,0,0,4.5109,4.511,4.5103,4.5104,4.5121,4.5121,4.5161,4.5162,0,0,0,0,0,0,0,0,0,0,0,4.5109,4.511,4.5111,4.5104,4.5121,4.5121,4.5161,4.5141,0,0,0,0,0,0,0,0,0,0,4.5122,4.5138,4.511,4.5111,4.5104,4.5121,4.5121,4.514,4.5143,4.5161,0,4.518,0,4.5172,4.5165,4.5166,0,0,0,4.5096,4.5136,4.5131,4.5111,4.5105,4.5121,4.5111,4.5141,4.5144,4.5164,4.5181,4.5182,4.5172,4.5166,4.5166,4.5301,4.5302,0,0,4.5095,4.5118,4.5129,4.5133,4.5132,4.5111,4.5112,4.5143,4.5162,4.5181,4.5182,4.5173,4.5166,4.5167,4.53,4.5302,0,0,0,4.5098,4.5118,4.5111,4.5132,4.5134,4.5111,4.5113,4.516,4.5157,4.5183,4.5174,4.5166,4.5167,4.5299,4.5301,4.5375,0,0,0,4.5097,4.5119,4.5111,4.5126,4.5134,4.5147,4.513,4.5154,4.5157,4.5173,4.5166,4.5168,4.5298,4.53,4.537,4.5406,0,0,0,4.5104,4.512,4.5126,4.5127,4.5135,4.5146,4.5144,4.5154,4.5152,4.5166,4.5168,4.5297,4.53,4.5366,4.5399,4.545,0,0,0,4.5119,4.519,4.5128,4.5204,4.5135,4.5192,4.5143,4.5184,4.5204,4.5167,4.5298,4.5301,4.5365,4.5395,4.5446,4.5498,4.5521,0,0,4.5222,4.5203,4.5247,4.5191,4.5265,4.5187,4.5272,4.5268,4.5248,4.5285,4.5288,4.5372,4.5399,4.5449,4.5642,4.5661,0,0,0,4.5287,4.5319,4.5333,4.5354,4.5354,4.5357,4.5338,4.5337,4.5368,4.5271,4.5402,4.5418,4.5446,4.547,4.5486,4.551,4.5312,4.5312,4.5312,4.5466,4.5437,4.5508,4.5482,4.5503,4.5484,4.5499,4.5494,4.5457,4.5489,4.55,4.5621,4.565,4.5662,4.5687,4.5524,4.5525,4.5525,4.5525,4.5615,4.5656,4.5608,4.5659,4.5629,4.5672,4.5657,4.563,4.5666,4.561,4.5633,4.5576,4.5683,4.5704,4.553,4.5529,4.5529,4.5528,4.5528,4.573,4.5745,4.5743,4.5772,4.5798,4.5769,4.5807,4.5777,4.575,4.5773,4.5783,4.5782,4.5778,4.578,4.578,4.5781,4.5781,4.5781,4.5781,4.585,4.5845,4.5881,4.5889,4.59,4.5911,4.5894,4.5904,4.5907,4.5883,4.5883,4.5845,4.5699,4.5663,4.5788,4.5787,4.5786,4.5785,4.5785,4.6013,4.5972,4.6027,4.6039,4.6047,4.6076,4.6038,4.6062,4.6065,4.6085,4.6042,4.5939,4.5918,4.5905,4.5875,4.6047,4.6047,4.6047,4.6047,4.6111,4.6098,4.6149,4.617,4.6186,4.6159,4.6223,4.6212,4.6193,4.6194,4.6165,4.6123,4.6111,4.6097,4.608,4.6052,4.6265,4.6265,4.6265,4.6211,4.6199,4.6259,4.6241,4.6246,4.6251,4.6311,4.6337,4.6307,4.6274,4.6195,4.6185,4.6118,4.6097,4.6062,4.6036,4.5984,0,0]}]]